This is the latest recevied weather packets stored in our database for station/object KQ4DLB-13. If no packets are shown the sender has not sent any weather packets the latest 10 day(s).
| Time | Temp. | Humidity | Pressure | Rain* | Wind** | Luminosity | Snow |
|---|---|---|---|---|---|---|---|
| 1777419602 | 21.11° C | 91% | 990.6 hPa | 0.51 mm | - | - | - |
| 1777419302 | 21.67° C | 90% | 990.6 hPa | 0.25 mm | - | - | - |
| 1777419002 | 21.67° C | 90% | 990.5 hPa | 0 mm | - | - | - |
| 1777418703 | 21.67° C | 90% | 990.7 hPa | 0 mm | - | - | - |
| 1777418403 | 21.67° C | 90% | 990.6 hPa | 0 mm | - | - | - |
| 1777418102 | 21.67° C | 90% | 990.4 hPa | 0 mm | - | - | - |
| 1777417803 | 22.22° C | 89% | 990.3 hPa | 0 mm | - | - | - |
| 1777417503 | 22.22° C | 89% | 990.3 hPa | 0 mm | - | - | - |
| 1777417203 | 22.22° C | 88% | 990.2 hPa | 0 mm | - | - | - |
| 1777416903 | 22.78° C | 87% | 990 hPa | 0 mm | - | - | - |
| 1777416603 | 23.33° C | 83% | 989.4 hPa | 0 mm | - | - | - |
| 1777416302 | 23.33° C | 82% | 989 hPa | 0 mm | - | - | - |
| 1777416002 | 23.33° C | 82% | 989 hPa | 0 mm | - | - | - |
| 1777415702 | 23.33° C | 82% | 989 hPa | 0 mm | - | - | - |
| 1777415402 | 22.78° C | 82% | 988.8 hPa | 0 mm | - | - | - |
| 1777415102 | 22.78° C | 85% | 988.5 hPa | 0 mm | - | - | - |
| 1777414802 | 22.78° C | 86% | 988.3 hPa | 0 mm | - | - | - |
| 1777414502 | 22.78° C | 86% | 987.9 hPa | 0 mm | - | - | - |
| 1777414203 | 22.78° C | 86% | 987.9 hPa | 0 mm | - | - | - |
| 1777413902 | 23.33° C | 86% | 987.8 hPa | 0 mm | - | - | - |
| 1777413602 | 23.33° C | 85% | 987.9 hPa | 0 mm | - | - | - |
| 1777413302 | 23.89° C | 83% | 987.9 hPa | 0 mm | - | - | - |
| 1777413002 | 23.89° C | 82% | 987.9 hPa | 0 mm | - | - | - |
| 1777412702 | 23.89° C | 79% | 988 hPa | 0 mm | - | - | - |
| 1777412403 | 24.44° C | 81% | 988.2 hPa | 0 mm | - | - | - |
* Rain latest hour (hover to see other rain measurements)
** Current wind speed in m/s (hover to see current wind gust speed)